Погода в Меце

Франция     49°07′06″N   6°11′05″E
темп.,
°C
ветер,
м/с
пор.,
м/с
влажн.,
%
обл.,
%
осадки,
мм/ч
давл.,
гПа
погр.,
м
7 мая, пт
пт723:00+5з3797100 0.1 1009467
02:00+5з3697100 0.1 1010297
05:00+5з4693100 0.1 1011530
08:00+5зсз489556 0.1 1014480
11:00+9з7116324 0.0 10161681
14:00+11зсз684946 0.1 10172075
17:00+12з455160 0.0 10181940
20:00+9з22735 0.0 101935
8 мая, сб
сб823:00+5ю117560 0.0 102010
02:00+4ююв227898 0.0 102014
05:00+2юв228594 0.0 101913
08:00+6юв247572 0.0 1019140
11:00+12ююв466590 0.0 1017701
14:00+15ююз576110 0.0 10151176
17:00+17ююз4872100 0.0 10131365
20:00+15ююв368571 0.0 1012141
9 мая, вс
вс923:00+10ююв329177 0.0 101224
02:00+9вюв238999 0.0 101033
05:00+9юв3684100 0.0 100990
08:00+14ю71774100 0.0 1008634
11:00+18ю7177157 0.0 10071048
14:00+22ююз8166799 0.0 10061589
17:00+22ююз9196522 0.0 10041805
20:00+19ю61567100 0.0 1004609
10 мая, пн
пн1023:00+17ююз2363100 0.0 100432
02:00+14ю3385100 0.4 100466
05:00+13юз41397100 3.1 1005692
08:00+13зюз71194100 5.0 1007666
11:00+13юз6987100 1.0 1010843
14:00+13юз4676100 1.1 1010869
17:00+13ю3492100 1.3 1010370
20:00+11ююв3697100 2.9 1011296
11 мая, вт
вт1123:00+10ю3799100 4.8 1012300
02:00+9ююв2697100 7.2 1012207
05:00+9ссв11975 0.1 101016
08:00+10в259592 0.1 1010210
11:00+12в458975 0.6 1009406
14:00+12зюз4688100 1.1 1009382
17:00+11юз1496100 1.6 1008245
20:00+11в2297100 5.4 1008145